Location: Bodest
(46.3000°N, 22.5667°E)
Time: 23:53:58
(UTC+00:00)

COSMO-SKYMED 1 - Pass Details

Date: 16 October 2021
Orbit: 621 x 623 km, 97.9° (Epoch: 05 December)

Event Time Altitude Azimuth Distance (km) Brightness Sun altitude
Rises 17:01:21 0° 9° (N) 2,917 5.9 -14.6°
Reaches altitude 10° 17:03:34 10° 6° (N) 2,005 5.1 -14.9°
Maximum altitude 17:07:51 58° 288° (WNW) 732 3.2 -15.7°
Drops below altitude 10° 17:12:06 10° 209° (SSW) 1,989 5.5 -16.4°
Sets 17:14:18 0° 206° (SSW) 2,890 6.3 -16.8°
